Regional Weather Roundup
Issued by NWS

Home | Current Version | Previous Version | Graphics & Text | Print | Product List | Glossary On
Versions: 1 2 3 4 5 6 7 8 9 10 11 12 13 14 15 16 17 18 19 20 21 22 23 24 25 26 27 28 29 30 31 32 33 34 35 36 37 38 39 40 41 42 43 44 45 46 47 48 49 50
000
ASUS43 KOAX 010602
RWRNE

WEATHER ROUNDUP FOR NEBRASKA
NATIONAL WEATHER SERVICE OMAHA NE
100 AM CDT SAT OCT 01 2016

NOTES: SATELLITE DATA IS BEING USED TO AUGMENT CLOUD COVER ABOVE
       12000 FEET.
       "FAIR" INDICATES FEW OR NO CLOUDS BELOW 12,000 FEET WITH NO
       SIGNIFICANT WEATHER AND/OR OBSTRUCTIONS TO VISIBILITY.

  * THESE STATIONS DO NOT REPORT WEATHER SUCH AS RAIN...SNOW OR FOG.

NEZ001>004-019>022-054>056-010700-
NEBRASKA PANHANDLE

CITY           SKY/WX    TMP DP  RH WIND       PRES   REMARKS
SCOTTSBLUFF    CLEAR     53  47  79 E7        30.11S
6HR MIN TEMP:  52; 6HR MAX TEMP:  66;

ALLIANCE       CLOUDY    53  46  77 S8        30.11S
6HR MIN TEMP:  53; 6HR MAX TEMP:  66;

CHADRON        CLEAR     64  46  52 SW9       30.06R
6HR MIN TEMP:  63; 6HR MAX TEMP:  71;

KIMBALL        CLEAR     50  46  85 S6        30.17S
SIDNEY         CLOUDY    53  45  74 S10       30.15F
6HR MIN TEMP:  52; 6HR MAX TEMP:  67;

$$

NEZ057>060-069>072-079>082-010700-
SOUTHWEST NEBRASKA

CITY           SKY/WX    TMP DP  RH WIND       PRES   REMARKS
NORTH PLATTE   CLOUDY    55  46  71 S3        30.14S
6HR MIN TEMP:  51; 6HR MAX TEMP:  64;

IMPERIAL       CLOUDY    55  45  68 SE9       30.14S
6HR MIN TEMP:  55; 6HR MAX TEMP:  67;

LEXINGTON      PTCLDY    51  44  77 SE3       30.15S
MCCOOK         CLOUDY    53  45  74 SE3       30.15S
6HR MIN TEMP:  53; 6HR MAX TEMP:  66;

OGALLALA       PTCLDY    59  47  64 SE3       30.14R
$$

NEZ005>010-023>029-035>040-094-010700-
NORTH CENTRAL NEBRASKA

CITY           SKY/WX    TMP DP  RH WIND       PRES   REMARKS
VALENTINE      PTCLDY    59  44  57 S15       30.10F
6HR MIN TEMP:  58; 6HR MAX TEMP:  67;

AINSWORTH      PTCLDY    56  45  68 S9        30.13S
BROKEN BOW     CLOUDY    52  46  80 SE6       30.14F
6HR MIN TEMP:  51; 6HR MAX TEMP:  64;

O`NEILL        PTCLDY    53  45  73 SE3       30.16S
ORD            MOCLDY    50  44  80 CALM      30.15S
6HR MIN TEMP:  49; 6HR MAX TEMP:  64; 6HR PCP: TRACE;

THEDFORD       CLOUDY    53  46  75 CALM      30.14S
$$

NEZ041-046>049-061>064-073>077-083>087-010700-
SOUTH CENTRAL NEBRASKA

CITY           SKY/WX    TMP DP  RH WIND       PRES   REMARKS
GRAND ISLAND   MOCLDY    54  45  71 SE7       30.16F
6HR MIN TEMP:  52; 6HR MAX TEMP:  64;

AURORA         PTCLDY    51  46  83 SE3       30.16F
HASTINGS       CLOUDY    51  45  79 CALM      30.17S
6HR MIN TEMP:  51; 6HR MAX TEMP:  67;

HEBRON         CLOUDY    49  47  95 CALM      30.16S
HOLDREGE       PTCLDY    51  45  77 SE5       30.15F
KEARNEY *      CLOUDY    52  43  71 E6        30.15S
YORK           PTCLDY    52  46  82 CALM      30.17S
$$

NEZ011>018-030>034-042>045-010700-
NORTHEAST NEBRASKA

CITY           SKY/WX    TMP DP  RH WIND       PRES   REMARKS
NORFOLK        PTCLDY    49  43  80 CALM      30.16S
6HR MIN TEMP:  46; 6HR MAX TEMP:  63;

ALBION         PTCLDY    47  44  88 CALM      30.17R
BLAIR          MOCLDY    56  53  88 SE5       30.16F
FREMONT        PTCLDY    53  49  88 CALM      30.17S
TEKAMAH        CLOUDY    51  49  92 CALM      30.16F
6HR MIN TEMP:  48; 6HR MAX TEMP:  65;

WAYNE          PTCLDY    45  44  96 CALM      30.18R
$$

NEZ050>053-065>068-078-088>093-010700-
SOUTHEAST NEBRASKA

CITY           SKY/WX    TMP DP  RH WIND       PRES   REMARKS
LINCOLN        PTCLDY    56  51  84 CALM      30.18S
6HR MIN TEMP:  54; 6HR MAX TEMP:  64;

OMAHA EPPLEY   MOCLDY    56  51  84 CALM      30.16F
6HR MIN TEMP:  55; 6HR MAX TEMP:  68;

BEATRICE       PTCLDY    55  52  89 CALM      30.16F
FALLS CITY     CLEAR     54  52  93 CALM      30.14F
6HR MIN TEMP:  52; 6HR MAX TEMP:  69;

NEBRASKA CITY  CLEAR     55  51  85 CALM      30.16S
PLATTSMOUTH    CLEAR     53  49  86 CALM      30.16S
$$

NEZ044-045-051>053-067-010700-
OMAHA AREA

CITY           SKY/WX    TMP DP  RH WIND       PRES   REMARKS
OMAHA EPPLEY   MOCLDY    56  51  84 CALM      30.16F
6HR MIN TEMP:  55; 6HR MAX TEMP:  68;

BLAIR          MOCLDY    56  53  88 SE5       30.16F
FREMONT        PTCLDY    53  49  88 CALM      30.17S
MILLARD        PTCLDY    55  53  95 CALM      30.16S
OFFUTT AFB     MOCLDY    53  53 100 NW2       30.15S
PLATTSMOUTH    CLEAR     53  49  86 CALM      30.16S
WAHOO          FAIR      51  48  90 SW3       30.16F
$$



USA.gov is the U.S. government's official web portal to all federal, state and local government web resources and services.